Total_Precipitation_Accumulation
0.30 0.66 0.92 0.81 0.74 0.76 0.73 0.71 0.71 0.61 0.55 0.56 0.50 0.44 0.46 0.47 0.48 0.43 0.42 0.42 0.35 0.31 0.35 0.34 0.29 0.32 0.35 0.46 0.56 0.72 1.08 1.49 1.68 1.57 1.52 1.58 1.68 1.66 1.56 1.53 1.50 1.55 1.55 1.55
0.35 0.46 0.38 0.42 0.47 0.58 0.68 0.73 0.73 0.63 0.46 0.44 0.43 0.38 0.37 0.38 0.40 0.37 0.34 0.37 0.34 0.30 0.27 0.26 0.21 0.23 0.29 0.47 0.62 0.73 1.02 1.45 1.65 1.75 1.87 2.08 2.26 2.14 2.01 1.99 1.93 2.01 2.03 2.19
0.32 0.28 0.23 0.34 0.50 0.61 0.67 0.70 0.68 0.59 0.44 0.38 0.37 0.39 0.33 0.36 0.33 0.32 0.31 0.33 0.30 0.24 0.23 0.23 0.20 0.23 0.28 0.40 0.52 0.66 0.84 1.12 1.46 1.73 2.00 2.29 2.51 2.49 2.37 2.21 2.17 2.23 2.30 2.46
0.31 0.26 0.26 0.33 0.41 0.51 0.67 0.47 0.43 0.41 0.51 0.51 0.39 0.57 0.39 0.37 0.36 0.33 0.32 0.30 0.29 0.25 0.24 0.27 0.24 0.24 0.28 0.34 0.43 0.58 0.75 0.97 1.23 1.47 1.89 2.33 2.63 2.73 2.64 2.52 2.47 2.44 2.46 2.51
0.28 0.24 0.27 0.31 0.32 0.38 0.50 0.39 0.38 0.39 0.46 0.43 0.31 0.41 0.39 0.31 0.35 0.33 0.30 0.28 0.27 0.26 0.27 0.30 0.30 0.32 0.34 0.35 0.40 0.52 0.67 0.89 1.14 1.36 1.72 2.12 2.41 2.64 2.79 2.61 2.48 2.50 2.53 2.56
0.25 0.19 0.20 0.26 0.29 0.31 0.39 0.40 0.37 0.38 0.43 0.48 0.24 0.36 0.47 0.32 0.28 0.28 0.26 0.25 0.26 0.28 0.33 0.37 0.47 0.50 0.49 0.43 0.47 0.57 0.66 0.80 0.96 1.11 1.32 1.55 1.89 2.16 2.51 2.51 2.43 2.55 2.54 2.47
0.27 0.24 0.20 0.22 0.28 0.31 0.37 0.53 0.67 0.66 0.64 0.44 0.19 0.34 0.49 0.34 0.26 0.26 0.27 0.27 0.28 0.31 0.35 0.43 0.58 0.63 0.64 0.55 0.51 0.53 0.66 0.72 0.79 0.90 1.00 1.14 1.39 1.58 1.96 2.27 2.25 2.17 2.23 2.29
0.29 0.30 0.19 0.19 0.23 0.27 0.30 0.48 0.73 0.81 0.71 0.48 0.34 0.51 0.55 0.39 0.31 0.28 0.26 0.29 0.34 0.38 0.43 0.59 0.76 0.78 0.77 0.68 0.59 0.58 0.68 0.73 0.74 0.80 0.84 0.93 1.06 1.17 1.34 1.56 1.68 1.72 1.78 2.01
0.29 0.26 0.17 0.17 0.17 0.18 0.25 0.32 0.37 0.53 0.51 0.54 0.53 0.61 0.54 0.34 0.32 0.33 0.35 0.39 0.50 0.59 0.63 0.75 0.90 0.93 0.83 0.76 0.67 0.65 0.71 0.81 0.81 0.82 0.84 0.93 0.97 0.99 1.10 1.14 1.29 1.47 1.51 1.57
0.31 0.28 0.19 0.18 0.18 0.17 0.18 0.23 0.38 0.57 0.72 0.73 0.60 0.63 0.59 0.45 0.44 0.43 0.47 0.53 0.65 0.75 0.82 0.91 1.05 1.06 0.91 0.78 0.69 0.66 0.70 0.82 1.00 1.12 1.07 1.00 1.06 1.14 1.36 1.41 1.27 1.24 1.40 1.47
0.42 0.39 0.23 0.20 0.20 0.20 0.22 0.32 0.46 0.60 0.62 0.85 0.94 0.85 0.67 0.63 0.64 0.65 0.67 0.72 0.80 0.92 0.93 0.91 1.00 1.07 0.95 0.76 0.68 0.62 0.64 0.75 0.89 0.93 0.99 0.98 1.02 1.11 1.39 1.62 1.57 1.39 1.38 1.41
0.39 0.52 0.35 0.23 0.23 0.25 0.30 0.42 0.62 0.91 0.87 0.81 0.97 0.96 0.71 0.64 0.68 0.69 0.68 0.67 0.71 0.83 0.85 0.88 0.92 0.88 0.79 0.63 0.55 0.51 0.52 0.64 0.76 0.75 0.81 0.89 0.91 0.99 1.11 1.23 1.25 1.19 1.12 1.09
0.48 0.66 0.65 0.53 0.51 0.41 0.48 0.51 0.58 0.75 0.87 0.89 1.01 0.99 0.68 0.60 0.54 0.56 0.58 0.61 0.63 0.64 0.64 0.65 0.66 0.63 0.61 0.59 0.56 0.50 0.50 0.57 0.65 0.68 0.74 0.81 0.84 0.86 0.88 0.89 0.82 0.87 0.89 0.95
0.48 0.56 0.66 0.72 0.70 0.67 0.64 0.54 0.49 0.68 0.94 0.88 0.86 0.82 0.66 0.58 0.53 0.55 0.57 0.58 0.61 0.54 0.47 0.47 0.49 0.51 0.54 0.54 0.53 0.50 0.48 0.55 0.64 0.79 0.86 0.90 0.91 0.91 0.91 0.89 0.85 0.85 0.87 0.92
0.37 0.39 0.34 0.33 0.34 0.45 0.50 0.43 0.42 0.50 0.59 0.74 0.73 0.69 0.57 0.53 0.57 0.60 0.57 0.53 0.50 0.44 0.38 0.38 0.37 0.41 0.41 0.42 0.44 0.44 0.43 0.49 0.58 0.71 0.83 0.87 0.89 0.91 0.88 0.80 0.78 0.83 0.80 0.79
0.24 0.29 0.25 0.22 0.23 0.30 0.37 0.38 0.39 0.39 0.43 0.54 0.60 0.60 0.47 0.43 0.41 0.42 0.40 0.34 0.34 0.34 0.30 0.27 0.27 0.29 0.29 0.28 0.29 0.30 0.37 0.47 0.53 0.61 0.72 0.88 0.91 0.83 0.79 0.72 0.71 0.74 0.73 0.70
0.22 0.31 0.39 0.33 0.27 0.30 0.54 0.54 0.54 0.56 0.49 0.49 0.44 0.35 0.23 0.23 0.25 0.29 0.29 0.29 0.33 0.30 0.25 0.23 0.23 0.24 0.25 0.26 0.29 0.32 0.40 0.49 0.48 0.55 0.70 0.88 0.86 0.74 0.69 0.73 0.78 0.74 0.73 0.73
0.19 0.31 0.44 0.38 0.40 0.70 0.87 0.63 0.60 0.56 0.35 0.22 0.15 0.14 0.13 0.19 0.18 0.17 0.19 0.21 0.24 0.23 0.19 0.18 0.17 0.17 0.18 0.21 0.26 0.28 0.32 0.37 0.40 0.46 0.57 0.73 0.74 0.70 0.73 0.72 0.70 0.65 0.61 0.61
0.19 0.33 0.48 0.42 0.47 0.69 0.67 0.43 0.36 0.36 0.25 0.10 0.08 0.09 0.11 0.14 0.13 0.11 0.12 0.13 0.13 0.13 0.10 0.09 0.09 0.09 0.09 0.09 0.12 0.15 0.18 0.21 0.26 0.34 0.44 0.54 0.56 0.59 0.61 0.59 0.59 0.55 0.51 0.53
0.33 0.40 0.59 0.56 0.68 0.69 0.36 0.19 0.17 0.24 0.31 0.10 0.05 0.05 0.05 0.07 0.11 0.08 0.06 0.07 0.08 0.07 0.06 0.04 0.04 0.04 0.03 0.04 0.06 0.08 0.12 0.15 0.19 0.26 0.34 0.43 0.46 0.47 0.49 0.53 0.54 0.54 0.51 0.49
0.32 0.41 0.52 0.56 0.77 0.62 0.26 0.13 0.13 0.26 0.33 0.12 0.04 0.03 0.03 0.03 0.05 0.04 0.05 0.05 0.06 0.06 0.04 0.03 0.03 0.02 0.03 0.04 0.05 0.05 0.08 0.12 0.13 0.16 0.22 0.30 0.37 0.44 0.50 0.55 0.56 0.59 0.56 0.51
0.38 0.41 0.41 0.49 0.64 0.58 0.24 0.17 0.21 0.22 0.13 0.07 0.04 0.03 0.02 0.02 0.02 0.02 0.03 0.03 0.05 0.05 0.04 0.04 0.03 0.03 0.03 0.05 0.04 0.04 0.06 0.08 0.09 0.10 0.16 0.24 0.32 0.41 0.49 0.59 0.62 0.60 0.60 0.59
0.39 0.41 0.43 0.51 0.64 0.44 0.27 0.24 0.22 0.17 0.12 0.06 0.03 0.02 0.02 0.02 0.01 0.01 0.02 0.03 0.04 0.05 0.04 0.04 0.04 0.03 0.03 0.04 0.05 0.04 0.06 0.06 0.06 0.08 0.13 0.18 0.22 0.26 0.32 0.41 0.51 0.56 0.59 0.59
0.25 0.25 0.30 0.39 0.37 0.24 0.22 0.20 0.16 0.12 0.09 0.04 0.03 0.02 0.02 0.02 0.02 0.01 0.02 0.02 0.03 0.03 0.04 0.04 0.04 0.04 0.04 0.04 0.04 0.05 0.05 0.05 0.06 0.08 0.10 0.13 0.14 0.14 0.16 0.26 0.33 0.39 0.47 0.53
0.20 0.22 0.25 0.32 0.31 0.21 0.15 0.14 0.11 0.10 0.07 0.03 0.02 0.02 0.02 0.02 0.02 0.02 0.02 0.02 0.02 0.03 0.03 0.03 0.03 0.04 0.05 0.04 0.04 0.06 0.06 0.07 0.07 0.07 0.07 0.08 0.10 0.11 0.13 0.18 0.26 0.31 0.38 0.42
0.14 0.19 0.26 0.33 0.30 0.25 0.14 0.11 0.09 0.08 0.06 0.04 0.03 0.02 0.02 0.01 0.01 0.01 0.01 0.02 0.02 0.03 0.03 0.04 0.04 0.04 0.05 0.05 0.05 0.06 0.08 0.08 0.11 0.13 0.09 0.08 0.09 0.12 0.14 0.16 0.18 0.18 0.21 0.22